Tracking 35275 objects as of 8-Sep-2026
HD Live streaming from Space Station
objects crossing your sky now

STARLINK-35626

Track STARLINK-35626 now!
10-day predictions
STARLINK-35626 is classified as:


NORAD ID: 66233
Int'l Code: 2025-244AD
Launch date: October 28, 2025
Source: United States (US)
Launch site: AIR FORCE WESTERN TEST RANGE (AFWTR)
Your satellite tracking list
Your tracking list is empty




NASA's NSSDC Master Catalog

Two Line Element Set (TLE):
1 66233U 25244AD  26250.84695841  .00029541  00000-0  88156-3 0  9999
2 66233  53.1584 102.7366 0001337 113.3004 246.8139 15.34415374 49563
Source of the keplerian elements: AFSPC